Regional Weather Roundup
Issued by NWS

Home | Current Version | Previous Version | Text Only | Print | Product List | Glossary Off
Versions: 1 2 3 4 5 6 7 8 9 10 11 12 13 14 15 16 17 18 19 20 21 22 23 24 25 26 27 28 29 30 31 32 33 34 35 36 37 38 39 40 41 42 43 44 45 46 47 48 49 50

000
ASUS43 KMKX 250100
RWRWI

WISCONSIN REGIONAL WEATHER ROUNDUP
NATIONAL WEATHER SERVICE MILWAUKEE/SULLIVAN WI
800 PM CDT TUE MAY 24 2016

NOTE: "FAIR" INDICATES FEW OR NO CLOUDS BELOW 12,000 FEET WITH NO
SIGNIFICANT WEATHER AND/OR OBSTRUCTIONS TO VISIBILITY.

WIZ001-002-006>008-014>016-023>028-250200-
NORTHWEST WISCONSIN

CITY           SKY/WX    TMP DP  RH WIND       PRES   REMARKS
SUPERIOR ARPT  FOG       49  49  99 NE9       29.95S VSB 1/4
ASHLAND        FOG       55  55 100 NE9       29.97R VSB 1/4
HAYWARD        PTCLDY    71  57  61 NE6       29.92S
SIREN          CLOUDY    75  57  53 CALM      29.90S
CUMBERLAND     CLOUDY    73  54  49 CALM      29.91S
RICE LAKE      CLOUDY    77  52  41 CALM      29.91F
CHETEK         CLOUDY    73  59  61 CALM      29.91R
LADYSMITH      CLEAR     74  56  53 NW5       29.93S
EAU CLAIRE     NOT AVBL
MENOMONIE      CLEAR     77  46  33 NW5       29.89S
NEW RICHMOND   PTCLDY    77  51  39 CALM      29.90S
OSCEOLA        PTCLDY    80  52  37 CALM      29.91F HX  80
$$

WIZ003>005-009-010-017-018-250200-
NORTH CENTRAL WISCONSIN

CITY           SKY/WX    TMP DP  RH WIND       PRES   REMARKS
MANITOWISH WTR NOT AVBL
ARBOR VITAE    CLEAR     69  61  77 N6        29.94S
WOODRUFF       CLEAR     69  61  77 N6        29.94S
RHINELANDER    LGT RAIN  70  55  59 N5        29.94R
EAGLE RIVER      N/A     67  58  71 N7        29.94R
LAND O LAKES   CLOUDY    67  56  67 N5        29.96R
PHILLIPS       CLOUDY    71  61  70 N5        29.92S
TOMAHAWK       CLEAR     73  55  54 SW3       29.92F
MEDFORD        PTCLDY    74  62  65 SW3       29.92F
MERRILL        CLEAR     74  59  59 W5        29.92F
$$

WIZ029-030-035-036-043>047-250200-
CENTRAL WISCONSIN

CITY           SKY/WX    TMP DP  RH WIND       PRES   REMARKS
WAUSAU         CLEAR     77  56  48 W3        29.90F
MOSINEE        CLEAR     73  55  53 SW3       29.93F
MARSHFIELD     CLEAR     75  55  49 W5        29.91S
STEVENS POINT  CLEAR     76  53  44 CALM      29.92F
WAUPACA        PTCLDY    80  57  45 W5        29.91S HX  80
WAUTOMA        CLEAR     78  58  49 SW5       29.92R
WISC RAPIDS    CLEAR     76  55  48 W3        29.93R
CAMP DOUGLAS   NOT AVBL
$$

WIZ011>013-019>022-031-037>040-048>050-250200-
NORTHEAST WISCONSIN

CITY           SKY/WX    TMP DP  RH WIND       PRES   REMARKS
ANTIGO         CLEAR     72  58  61 W6        29.93F
SHAWANO        CLEAR     77  56  47 W5        29.90F
OCONTO         PTCLDY    77  60  55 CALM      29.88F
STURGEON BAY   NOT AVBL
GREEN BAY      PTCLDY    79  57  46 SW3       29.89F HX  80
MANITOWOC      NOT AVBL
APPLETON       PTCLDY    77  52  41 SW6       29.90S
CLINTONVILLE   PTCLDY    79  50  36 NW6       29.90S
OSHKOSH        CLEAR     77  58  51 CALM      29.91R
$$

WIZ032>034-041-042-053>061-250200-
SOUTHWEST WISCONSIN

CITY           SKY/WX    TMP DP  RH WIND       PRES   REMARKS
LA CROSSE      CLEAR     80  60  50 CALM      29.89S HX  81
SPARTA         CLEAR     79  57  47 SW3       29.92S HX  80
VIROQUA        CLEAR     80  54  40 CALM      29.93F HX  80
BOSCOBEL       CLEAR     82  60  47 CALM      29.91R HX  82
PRAIRIE DU CHI CLEAR     81  58  44 SE3       29.89S HX  81
PLATTEVILLE    CLEAR     80  60  50 CALM      29.93R HX  81
$$

WIZ056-057-062-063-064-067-068-250200-
SOUTH CENTRAL WISCONSIN

CITY           SKY/WX    TMP DP  RH WIND       PRES   REMARKS
REEDSBURG      PTCLDY    78  58  50 SW3       29.93R
BARABOO/DELLS  PTCLDY    79  54  42 W3        29.94R
LONE ROCK      NOT AVBL
MINERAL POINT  CLEAR     79  57  47 CALM      29.94R HX  80
MADISON        CLOUDY    79  60  52 CALM      29.93R HX  80
MIDDLETON      CLOUDY    80  59  49 SW5       29.93R HX  81
WATERTOWN      MOCLDY    78  61  54 W3        29.92R HX  80
MONROE         CLOUDY    81  59  47 NW3       29.93R HX  81
JANESVILLE     PTCLDY    79  63  57 SE5       29.92S HX  80
$$

WIZ051-052-058>065-066-070>072-250200-
SOUTHEAST WISCONSIN

CITY           SKY/WX    TMP DP  RH WIND       PRES   REMARKS
MILWAUKEE      MOCLDY    70  60  70 E5        29.94R
WAUKESHA       RAIN      68  63  83 W6        29.96R
MILWAUKEE/TIMM MOCLDY    79  55  44 CALM      29.93R
RACINE         PTCLDY    71  50  47 CALM      29.95R
BURLINGTON     CLOUDY    75  55  50 CALM      29.93F
KENOSHA        CLOUDY    78  55  44 W5        29.93R HAZE
FOND DU LAC    CLEAR     76  61  59 SW5       29.92R
SHEBOYGAN      PTCLDY    70  60  70 S3        29.92S
WEST BEND      PTCLDY    77  55  47 W3        29.93R
JUNEAU         PTCLDY    78  58  51 CALM      29.94R
$$

LSZ147-162-250200-
LAKE SUPERIOR

STATION/POSITION TIME  TEMP    WIND        PRES    WAVE
                       AIR SEA DIR/SP/G            HT/PER
                 (UTC) (F)     (DEG/KT/KT) (MB)    (FT/S)
W MID LAKE BUOY  2350   42 38   40/ 12/ 14 1015.2R   1/ 3
DEVILS ISLAND    0000   48      80/ 13/ 14 1015.2R
SAXON HARBOR     0040   48     360/  4/  6 1014.6R
$$

LMZ867-665-643>646-250200-
LAKE MICHIGAN

STATION/POSITION TIME  TEMP    WIND        PRES    WAVE
                       AIR SEA DIR/SP/G            HT/PER
                 (UTC) (F)     (DEG/KT/KT) (MB)    (FT/S)
CHAMBERS ISLAND  0000   62      60/  8/ 10 1012.9S
N MID LAKE BUOY  2350   52 44  180/  4/  4 1013.6F   2/ 4
NORTHPORT PIER   0000   54     150/  6/ 13 1013.2R
SISTER BAY       0019   67     120/  8/ 13   N/A
ALGOMA LAKESHORE 0016          220/  7/  9   N/A
KEWAUNEE LAKESHO 0000   57                 1012.0R
SHEBOYGAN LAKESH 0000   58     170/ 10/ 10 1013.5F
PORT WASHINGTON  0000   62     160/  4/  5 1014.2F
S MID LAKE BUOY  2350   58 49  120/ 10/ 10 1013.1F   0
KENOSHA   LAKESH 0000   62     180/ 10/ 13 1012.9S
$$

TC  - TEMPERATURE IN CELSIUS
VSB - VISIBILITY IN STATUTE MILES
WCI - WIND CHILL INDEX
HX  - HEAT INDEX





USA.gov is the U.S. government's official web portal to all federal, state and local government web resources and services.